Location: Unspecified
(48.2082°N, 0.0000°E)
Time: 15:19:23
(UTC+00:00)

Vanguard 1 - Pass Details

Date: 25 June 2019
Orbit: 653 x 3830 km, 34.3° (Epoch: 20 July)

Event Time Altitude Azimuth Distance (km) Brightness Sun altitude
Rises 02:01:36 0° 232° (SW) 7,855 - -13.6°
Reaches altitude 10° 02:07:49 10° 226° (SW) 6,596 - -13.1°
Exits shadow 02:09:07 12° 225° (SW) 6,327 13.5 -13.0°
Maximum altitude 02:25:11 39° 168° (SSE) 3,492 12.5 -11.6°
Drops below altitude 10° 02:35:57 10° 104° (ESE) 4,162 13.5 -10.6°
Sets 02:38:51 0° 97° (E) 4,801 14.0 -10.3°
